• In Romania
  • List of Countries
  • For 7 days
  • Water Temperature
  • Satellite Maps
  • Weather Map
  • Weather Widgets
  • user-avatar
    Login

    Hourly Weather Canberra

    Today, 26 July, Wednesday

    Time Temperature Precipitation Wind Pressure Humidity
    00:00 +8°C° 0.4 mm 4 mps 708 mmHg 83%
    01:00 +7°C° 0.4 mm 4 mps 708 mmHg 88%
    02:00 +7°C° 0 mm 4 mps 708 mmHg 89%
    03:00 +7°C° 0 mm 4 mps 708 mmHg 90%
    04:00 +7°C° 0 mm 4 mps 707 mmHg 90%
    05:00 +7°C° 0 mm 4 mps 708 mmHg 89%
    06:00 +7°C° 0 mm 5 mps 708 mmHg 88%
    07:00 +7°C° 0 mm 5 mps 708 mmHg 87%
    08:00 +7°C° 0 mm 6 mps 708 mmHg 80%
    09:00 +8°C° 0 mm 6 mps 709 mmHg 74%
    10:00 +9°C° 0 mm 7 mps 709 mmHg 67%
    11:00 +9°C° 0 mm 7 mps 709 mmHg 65%
    12:00 +9°C° 0 mm 7 mps 709 mmHg 63%
    13:00 +10°C° 0 mm 7 mps 709 mmHg 60%
    14:00 +9°C° 0 mm 7 mps 709 mmHg 61%
    15:00 +9°C° 0 mm 6 mps 709 mmHg 62%
    16:00 +11°C° 0 mm 4 mps 709 mmHg 57%
    17:00 +8°C° 0 mm 4 mps 710 mmHg 65%
    18:00 +8°C° 0 mm 3 mps 711 mmHg 73%
    19:00 +7°C° 0 mm 3 mps 711 mmHg 80%
    20:00 +5°C° 0 mm 3 mps 711 mmHg 84%
    21:00 +5°C° 0 mm 2 mps 712 mmHg 88%
    22:00 +5°C° 0 mm 2 mps 712 mmHg 92%
    23:00 +5°C° 0 mm 1 mps 712 mmHg 93%

    Tomorrow, 27 July, Thursday

    Time Temperature Precipitation Wind Pressure Humidity
    00:00 +4°C° 0 mm 1 mps 713 mmHg 94%
    01:00 +4°C° 0 mm 1 mps 713 mmHg 96%
    02:00 +3°C° 0 mm 1 mps 713 mmHg 96%
    03:00 +3°C° 0 mm 1 mps 713 mmHg 95%
    04:00 +2°C° 0 mm 1 mps 713 mmHg 95%
    05:00 +2°C° 0 mm 1 mps 713 mmHg 94%
    06:00 +2°C° 0 mm 1 mps 713 mmHg 93%
    07:00 0°C° 0 mm 0 mps 714 mmHg 92%
    08:00 +4°C° 0 mm 1 mps 714 mmHg 81%
    09:00 +7°C° 0 mm 1 mps 714 mmHg 71%
    10:00 +9°C° 0 mm 1 mps 715 mmHg 60%
    11:00 +11°C° 0 mm 1 mps 714 mmHg 54%
    12:00 +12°C° 0 mm 2 mps 714 mmHg 48%
    13:00 +12°C° 0 mm 3 mps 713 mmHg 41%
    14:00 +12°C° 0 mm 3 mps 713 mmHg 44%
    15:00 +12°C° 0 mm 3 mps 712 mmHg 47%
    16:00 +12°C° 0 mm 3 mps 712 mmHg 50%
    17:00 +10°C° 0 mm 2 mps 712 mmHg 60%
    18:00 +8°C° 0 mm 2 mps 712 mmHg 70%
    19:00 +6°C° 0 mm 2 mps 712 mmHg 79%
    20:00 +5°C° 0 mm 2 mps 711 mmHg 80%
    21:00 +5°C° 0 mm 2 mps 711 mmHg 81%
    22:00 +5°C° 0 mm 2 mps 711 mmHg 82%
    23:00 +5°C° 0 mm 2 mps 711 mmHg 80%

    Day after tomorrow, 28 July, Friday

    Time Temperature Precipitation Wind Pressure Humidity
    00:00 +4°C° 0 mm 3 mps 710 mmHg 79%
    01:00 +4°C° 0 mm 3 mps 709 mmHg 78%
    02:00 +4°C° 0.1 mm 3 mps 709 mmHg 76%
    03:00 +5°C° 0.1 mm 4 mps 708 mmHg 74%
    04:00 +6°C° 0.1 mm 5 mps 708 mmHg 71%
    05:00 +6°C° 0.1 mm 5 mps 708 mmHg 76%
    06:00 +6°C° 0.1 mm 5 mps 708 mmHg 80%
    07:00 +6°C° 0.1 mm 5 mps 709 mmHg 84%
    08:00 +7°C° 0 mm 5 mps 709 mmHg 75%
    09:00 +8°C° 0 mm 5 mps 710 mmHg 67%
    10:00 +9°C° 0 mm 5 mps 710 mmHg 58%
    11:00 +10°C° 0 mm 5 mps 710 mmHg 51%
    12:00 +12°C° 0 mm 5 mps 710 mmHg 44%
    13:00 +13°C° 0 mm 6 mps 710 mmHg 37%
    14:00 +12°C° 0 mm 5 mps 710 mmHg 40%
    15:00 +10°C° 0 mm 5 mps 710 mmHg 43%
    16:00 +11°C° 0 mm 4 mps 710 mmHg 46%
    17:00 +8°C° 0 mm 4 mps 710 mmHg 58%
    18:00 +7°C° 0 mm 3 mps 711 mmHg 69%
    19:00 +5°C° 0 mm 2 mps 711 mmHg 81%
    20:00 +4°C° 0 mm 2 mps 711 mmHg 84%
    21:00 +3°C° 0 mm 2 mps 712 mmHg 87%
    22:00 +3°C° 0 mm 1 mps 712 mmHg 91%
    23:00 +3°C° 0 mm 1 mps 712 mmHg 91%

    29 July, Saturday

    Time Temperature Precipitation Wind Pressure Humidity
    00:00 +3°C° 0 mm 1 mps 712 mmHg 92%
    01:00 +3°C° 0 mm 1 mps 712 mmHg 92%
    02:00 +2°C° 0 mm 1 mps 711 mmHg 92%
    03:00 +2°C° 0 mm 1 mps 711 mmHg 91%
    04:00 +1°C° 0 mm 2 mps 711 mmHg 90%
    05:00 +1°C° 0 mm 2 mps 711 mmHg 89%
    06:00 +1°C° 0 mm 2 mps 711 mmHg 87%
    07:00 +1°C° 0 mm 2 mps 711 mmHg 86%
    08:00 +4°C° 0 mm 2 mps 711 mmHg 73%
    09:00 +7°C° 0 mm 2 mps 711 mmHg 61%
    10:00 +10°C° 0 mm 3 mps 711 mmHg 48%
    11:00 +12°C° 0 mm 3 mps 711 mmHg 45%
    12:00 +14°C° 0 mm 3 mps 710 mmHg 41%
    13:00 +17°C° 0 mm 4 mps 709 mmHg 38%
    14:00 +15°C° 0 mm 4 mps 708 mmHg 42%
    15:00 +15°C° 0 mm 4 mps 708 mmHg 46%
    16:00 +16°C° 0 mm 3 mps 707 mmHg 50%
    17:00 +13°C° 0 mm 3 mps 707 mmHg 59%
    18:00 +11°C° 0 mm 3 mps 707 mmHg 68%
    19:00 +8°C° 0 mm 2 mps 707 mmHg 77%
    20:00 +9°C° 0 mm 3 mps 707 mmHg 70%
    21:00 +10°C° 0 mm 4 mps 707 mmHg 64%
    22:00 +9°C° 0 mm 5 mps 707 mmHg 57%
    23:00 +10°C° 0 mm 5 mps 706 mmHg 53%

    30 July, Sunday

    Time Temperature Precipitation Wind Pressure Humidity
    00:00 +11°C° 0 mm 6 mps 706 mmHg 48%
    01:00 +13°C° 0 mm 6 mps 706 mmHg 44%
    02:00 +11°C° 0 mm 6 mps 706 mmHg 46%
    03:00 +12°C° 0 mm 5 mps 706 mmHg 49%
    04:00 +11°C° 0 mm 4 mps 705 mmHg 51%
    05:00 +11°C° 0 mm 4 mps 706 mmHg 53%
    06:00 +10°C° 0 mm 4 mps 706 mmHg 55%
    07:00 +9°C° 0 mm 3 mps 706 mmHg 58%
    08:00 +10°C° 0 mm 4 mps 707 mmHg 58%
    09:00 +12°C° 0 mm 4 mps 707 mmHg 58%
    10:00 +13°C° 0 mm 4 mps 708 mmHg 58%
    11:00 +13°C° 0.1 mm 4 mps 707 mmHg 60%
    12:00 +13°C° 0.1 mm 4 mps 707 mmHg 62%
    13:00 +14°C° 0.1 mm 5 mps 707 mmHg 65%
    14:00 +13°C° 0.3 mm 4 mps 707 mmHg 70%
    15:00 +11°C° 0.3 mm 4 mps 706 mmHg 75%
    16:00 +10°C° 0.3 mm 3 mps 706 mmHg 80%
    17:00 +9°C° 0.7 mm 3 mps 707 mmHg 83%
    18:00 +9°C° 0.7 mm 3 mps 707 mmHg 86%
    19:00 +8°C° 0.7 mm 2 mps 708 mmHg 89%
    20:00 +7°C° 0.2 mm 2 mps 708 mmHg 90%
    21:00 +7°C° 0.2 mm 2 mps 708 mmHg 90%
    22:00 +7°C° 0.2 mm 2 mps 709 mmHg 90%
    23:00 +6°C° 0 mm 2 mps 709 mmHg 91%

    31 July, Monday

    Time Temperature Precipitation Wind Pressure Humidity
    00:00 +6°C° 0 mm 2 mps 708 mmHg 91%
    01:00 +5°C° 0 mm 2 mps 708 mmHg 92%
    02:00 +5°C° 0 mm 2 mps 708 mmHg 91%
    03:00 +5°C° 0 mm 2 mps 708 mmHg 91%
    04:00 +5°C° 0 mm 2 mps 708 mmHg 91%
    05:00 +5°C° 0 mm 2 mps 709 mmHg 91%
    06:00 +5°C° 0 mm 2 mps 709 mmHg 90%
    07:00 +5°C° 0 mm 2 mps 709 mmHg 90%
    08:00 +6°C° 0 mm 2 mps 710 mmHg 85%
    09:00 +8°C° 0 mm 2 mps 710 mmHg 80%
    10:00 +9°C° 0 mm 2 mps 710 mmHg 75%
    11:00 +10°C° 0 mm 3 mps 710 mmHg 71%
    12:00 +10°C° 0 mm 3 mps 709 mmHg 67%
    13:00 +11°C° 0 mm 3 mps 709 mmHg 63%
    14:00 +11°C° 0 mm 3 mps 709 mmHg 64%
    15:00 +11°C° 0 mm 3 mps 709 mmHg 66%
    16:00 +10°C° 0 mm 3 mps 709 mmHg 67%
    17:00 +9°C° 0 mm 3 mps 709 mmHg 73%
    18:00 +8°C° 0 mm 2 mps 709 mmHg 80%
    19:00 +7°C° 0 mm 2 mps 710 mmHg 86%
    20:00 +6°C° 0 mm 2 mps 710 mmHg 88%
    21:00 +6°C° 0 mm 2 mps 710 mmHg 89%
    22:00 +5°C° 0 mm 2 mps 710 mmHg 91%
    23:00 +4°C° 0 mm 2 mps 710 mmHg 90%
    Show more